Location: Essen
(51.4609°N, 7.0127°E)
Time: 11:27:35
(UTC+02:00)

ISS - Visible Passes

Search period start: 13 May 2021 00:00
Search period end: 23 May 2021 00:00
Orbit: 417 x 422 km, 51.6° (Epoch: 13 May)

Date Brightness Start Highest point End Pass type
(mag) Time Alt. Az. Time Alt. Az. Time Alt. Az.
13 May -3.9 02:05:02 72° W 02:05:21 88° N 02:08:45 10° E visible
13 May -3.9 03:38:49 10° W 03:42:12 76° SSW 03:45:34 10° ESE visible
14 May -3.4 01:18:39 52° E 01:18:39 52° E 01:21:18 10° E visible
14 May -3.9 02:51:31 11° W 02:54:46 87° S 02:58:09 10° E visible
14 May -3.1 04:28:16 10° W 04:31:23 34° SSW 04:34:30 10° SE visible
14 May -2.6 22:51:23 10° SSW 22:54:03 22° SE 22:55:35 16° ESE visible
15 May -3.9 00:27:08 10° WSW 00:30:29 70° SSE 00:33:51 10° E visible
15 May -3.8 02:03:55 10° W 02:07:19 86° N 02:10:42 10° E visible
15 May -3.5 03:40:46 10° W 03:44:02 47° SSW 03:47:18 10° SE visible
15 May -2.1 22:04:42 10° S 22:06:47 16° SE 22:08:53 10° ESE visible
15 May -3.7 23:39:47 10° WSW 23:43:05 55° SSE 23:46:24 10° E visible
16 May -3.8 01:16:28 10° W 01:19:52 85° N 01:23:15 10° E visible
16 May -3.8 02:53:18 10° W 02:56:39 61° SSW 02:59:59 10° ESE visible
16 May -2.3 04:30:38 10° W 04:33:01 18° SW 04:35:23 10° S visible
16 May -3.4 22:52:30 10° SW 22:55:43 41° SSE 22:58:55 10° E visible
17 May -3.8 00:29:01 10° W 00:32:24 88° N 00:35:48 10° E visible
17 May -3.9 02:05:51 10° W 02:09:14 75° SSW 02:12:36 10° ESE visible
17 May -2.7 03:42:54 10° W 03:45:44 25° SSW 03:48:34 10° SSE visible
17 May -2.9 22:05:22 10° SSW 22:08:22 30° SSE 22:11:24 10° E visible
17 May -3.9 23:41:34 10° WSW 23:44:57 83° S 23:48:20 10° E visible
18 May -3.9 01:18:24 10° W 01:21:48 87° S 01:22:56 39° ESE visible
18 May -1.4 02:55:19 10° W 02:55:49 13° W 02:55:49 13° W visible
18 May -3.8 22:54:10 10° WSW 22:57:31 70° SSE 23:00:53 10° E visible
19 May -3.8 00:30:57 10° W 00:34:20 86° N 00:36:31 20° E visible
19 May -2.3 02:07:48 10° W 02:09:26 25° W 02:09:26 25° W visible
19 May -3.6 22:06:48 10° WSW 22:10:07 55° SSE 22:13:25 10° E visible
19 May -3.8 23:43:30 10° W 23:46:52 85° N 23:50:16 10° E visible
20 May -3.6 01:20:20 10° W 01:23:17 55° SW 01:23:17 55° SW visible
20 May -3.8 22:56:02 10° W 22:59:25 88° N 23:02:48 10° E visible
21 May -3.9 00:32:53 10° W 00:36:15 75° SSW 00:37:12 44° ESE visible
21 May -1.2 02:09:55 10° W 02:10:08 11° W 02:10:08 11° W visible
21 May -3.8 22:08:35 10° WSW 22:11:58 83° SSE 22:15:21 10° E visible
21 May -3.9 23:45:25 10° W 23:48:49 87° S 23:51:10 18° E visible
22 May -2.2 01:22:19 10° W 01:24:06 24° WSW 01:24:06 24° WSW visible
22 May -3.7 22:57:58 10° W 23:01:20 86° N 23:04:44 10° E visible
